Wetterdaten: Dienstag, 09.12.2014
Datum Zeit Temp. A. Feuchte A. Luftdruck Regen Wind Richtung Richtung Sonnenschein ET UV Solar Taupunkt Windchill Windben Empfang
09.12.2014 00:00 1,5 C 82 % 1019,6 hPa 0,0 l/m 0,0 km/h (0 Bft) SO 133 0 min 0,000 mm 0,0 UV-I 0 W/m -1,2 C 1,5 C 0,0 km/h (0 Bft) 0,00 %
09.12.2014 00:15 1,5 C 82 % 1019,7 hPa 0,0 l/m 0,0 km/h (0 Bft) S 171 0 min 0,000 mm 0,0 UV-I 0 W/m -1,2 C 1,5 C 0,0 km/h (0 Bft) 0,00 %
09.12.2014 00:30 1,5 C 82 % 1019,7 hPa 0,0 l/m 0,0 km/h (0 Bft) S-SW 203 0 min 0,000 mm 0,0 UV-I 0 W/m -1,2 C 1,5 C 0,0 km/h (0 Bft) 0,00 %
09.12.2014 00:45 1,5 C 82 % 1019,7 hPa 0,0 l/m 0,0 km/h (0 Bft) S 178 0 min 0,000 mm 0,0 UV-I 0 W/m -1,2 C 1,5 C 0,0 km/h (0 Bft) 0,00 %
09.12.2014 01:00 1,5 C 82 % 1019,7 hPa 0,0 l/m 0,0 km/h (0 Bft) S 190 0 min 0,000 mm 0,0 UV-I 0 W/m -1,2 C 1,5 C 0,0 km/h (0 Bft) 0,00 %
09.12.2014 01:15 1,5 C 82 % 1019,6 hPa 0,3 l/m 0,0 km/h (0 Bft) O-SO 115 0 min 0,000 mm 0,0 UV-I 0 W/m -1,2 C 1,5 C 0,0 km/h (0 Bft) 0,00 %
09.12.2014 01:30 1,5 C 82 % 1019,9 hPa 0,0 l/m 0,0 km/h (0 Bft) S 175 0 min 0,000 mm 0,0 UV-I 0 W/m -1,2 C 1,5 C 0,0 km/h (0 Bft) 0,00 %
09.12.2014 01:45 1,6 C 82 % 1020,0 hPa 0,0 l/m 0,0 km/h (0 Bft) S-SW 204 0 min 0,000 mm 0,0 UV-I 0 W/m -1,1 C 1,6 C 0,0 km/h (0 Bft) 0,00 %
09.12.2014 02:00 1,6 C 82 % 1020,0 hPa 0,0 l/m 0,0 km/h (0 Bft) S 176 0 min 0,000 mm 0,0 UV-I 0 W/m -1,1 C 1,6 C 0,0 km/h (0 Bft) 0,00 %
09.12.2014 02:15 1,6 C 82 % 1020,0 hPa 0,0 l/m 0,0 km/h (0 Bft) S 189 0 min 0,000 mm 0,0 UV-I 0 W/m -1,1 C 1,6 C 0,0 km/h (0 Bft) 0,00 %
09.12.2014 02:30 1,6 C 82 % 1020,1 hPa 0,0 l/m 0,0 km/h (0 Bft) S-SW 199 0 min 0,000 mm 0,0 UV-I 0 W/m -1,1 C 1,6 C 0,0 km/h (0 Bft) 0,00 %
09.12.2014 02:45 1,6 C 82 % 1020,2 hPa 0,0 l/m 0,0 km/h (0 Bft) S-SW 199 0 min 0,000 mm 0,0 UV-I 0 W/m -1,1 C 1,6 C 0,0 km/h (0 Bft) 0,00 %
09.12.2014 03:00 1,6 C 82 % 1020,1 hPa 0,0 l/m 0,0 km/h (0 Bft) W-SW 251 0 min 0,000 mm 0,0 UV-I 0 W/m -1,1 C 1,6 C 0,0 km/h (0 Bft) 0,00 %
09.12.2014 03:15 1,6 C 82 % 1020,0 hPa 0,0 l/m 0,0 km/h (0 Bft) S-SW 208 0 min 0,000 mm 0,0 UV-I 0 W/m -1,1 C 1,6 C 0,0 km/h (0 Bft) 0,00 %
09.12.2014 03:30 1,6 C 82 % 1020,4 hPa 0,0 l/m 0,0 km/h (0 Bft) W 275 0 min 0,000 mm 0,0 UV-I 0 W/m -1,1 C 1,6 C 0,0 km/h (0 Bft) 0,00 %
09.12.2014 03:45 1,5 C 82 % 1020,4 hPa 0,0 l/m 0,0 km/h (0 Bft) SW 217 0 min 0,000 mm 0,0 UV-I 0 W/m -1,2 C 1,5 C 0,0 km/h (0 Bft) 0,00 %
09.12.2014 04:00 1,5 C 83 % 1020,5 hPa 0,0 l/m 0,0 km/h (0 Bft) SW 217 0 min 0,000 mm 0,0 UV-I 0 W/m -1,1 C 1,5 C 0,0 km/h (0 Bft) 0,00 %
09.12.2014 04:15 1,4 C 83 % 1020,6 hPa 0,0 l/m 0,0 km/h (0 Bft) S-SO 152 0 min 0,000 mm 0,0 UV-I 0 W/m -1,2 C 1,4 C 0,0 km/h (0 Bft) 0,00 %
09.12.2014 04:30 1,3 C 83 % 1020,5 hPa 0,0 l/m 0,0 km/h (0 Bft) S 172 0 min 0,000 mm 0,0 UV-I 0 W/m -1,3 C 1,3 C 0,0 km/h (0 Bft) 0,00 %
09.12.2014 04:45 1,2 C 83 % 1020,7 hPa 0,0 l/m 0,0 km/h (0 Bft) S-SW 198 0 min 0,000 mm 0,0 UV-I 0 W/m -1,4 C 1,2 C 0,0 km/h (0 Bft) 0,00 %
09.12.2014 05:00 1,2 C 83 % 1021,1 hPa 0,0 l/m 0,0 km/h (0 Bft) S 191 0 min 0,000 mm 0,0 UV-I 0 W/m -1,4 C 1,2 C 0,0 km/h (0 Bft) 0,00 %
09.12.2014 05:15 1,2 C 83 % 1021,4 hPa 0,0 l/m 0,0 km/h (0 Bft) S 173 0 min 0,000 mm 0,0 UV-I 0 W/m -1,4 C 1,2 C 0,0 km/h (0 Bft) 0,00 %
09.12.2014 05:30 1,3 C 83 % 1021,4 hPa 0,0 l/m 0,0 km/h (0 Bft) N-NW 341 0 min 0,000 mm 0,0 UV-I 0 W/m -1,3 C 1,3 C 0,0 km/h (0 Bft) 0,00 %
09.12.2014 05:45 1,3 C 83 % 1021,7 hPa 0,0 l/m 0,0 km/h (0 Bft) SO 145 0 min 0,000 mm 0,0 UV-I 0 W/m -1,3 C 1,3 C 0,0 km/h (0 Bft) 0,00 %
09.12.2014 06:00 1,2 C 83 % 1021,9 hPa 0,0 l/m 0,0 km/h (0 Bft) W-SW 254 0 min 0,000 mm 0,0 UV-I 0 W/m -1,4 C 1,2 C 0,0 km/h (0 Bft) 0,00 %
09.12.2014 06:15 1,2 C 83 % 1021,9 hPa 0,0 l/m 0,0 km/h (0 Bft) NW 313 0 min 0,000 mm 0,0 UV-I 0 W/m -1,4 C 1,2 C 0,0 km/h (0 Bft) 0,00 %
09.12.2014 06:30 1,2 C 83 % 1022,3 hPa 0,0 l/m 0,0 km/h (0 Bft) NW 325 0 min 0,000 mm 0,0 UV-I 0 W/m -1,4 C 1,2 C 0,0 km/h (0 Bft) 0,00 %
09.12.2014 06:45 1,1 C 82 % 1022,5 hPa 0,0 l/m 0,0 km/h (0 Bft) NW 326 0 min 0,000 mm 0,0 UV-I 0 W/m -1,6 C 1,1 C 0,0 km/h (0 Bft) 0,00 %
09.12.2014 07:00 1,0 C 82 % 1022,9 hPa 0,0 l/m 0,0 km/h (0 Bft) NW 326 0 min 0,000 mm 0,0 UV-I 0 W/m -1,7 C 1,0 C 0,0 km/h (0 Bft) 0,00 %
09.12.2014 07:15 0,8 C 82 % 1023,4 hPa 0,0 l/m 0,0 km/h (0 Bft) N-NW 343 0 min 0,000 mm 0,0 UV-I 0 W/m -1,9 C 0,8 C 0,0 km/h (0 Bft) 0,00 %
09.12.2014 07:30 0,8 C 82 % 1023,5 hPa 0,0 l/m 0,0 km/h (0 Bft) N 351 0 min 0,000 mm 0,0 UV-I 0 W/m -1,9 C 0,8 C 0,0 km/h (0 Bft) 0,00 %
09.12.2014 07:45 0,7 C 82 % 1023,8 hPa 0,0 l/m 0,0 km/h (0 Bft) N-NO 16 0 min 0,000 mm 0,0 UV-I 0 W/m -2,0 C 0,7 C 0,0 km/h (0 Bft) 0,00 %
09.12.2014 08:00 0,5 C 82 % 1024,1 hPa 0,0 l/m 0,0 km/h (0 Bft) N-NO 16 0 min 0,000 mm 0,0 UV-I 7 W/m -2,2 C 0,5 C 0,0 km/h (0 Bft) 0,00 %
09.12.2014 08:15 0,4 C 83 % 1024,4 hPa 0,0 l/m 0,0 km/h (0 Bft) N-NO 16 0 min 0,000 mm 0,0 UV-I 23 W/m -2,1 C 0,4 C 0,0 km/h (0 Bft) 0,00 %
09.12.2014 08:30 0,6 C 82 % 1024,9 hPa 0,0 l/m 0,0 km/h (0 Bft) N-NO 28 0 min 0,000 mm 0,0 UV-I 35 W/m -2,1 C 0,6 C 0,0 km/h (0 Bft) 0,00 %
09.12.2014 08:45 0,7 C 82 % 1025,1 hPa 0,0 l/m 0,0 km/h (0 Bft) SO 124 0 min 0,000 mm 1,0 UV-I 35 W/m -2,0 C 0,7 C 0,0 km/h (0 Bft) 0,00 %
09.12.2014 09:00 0,7 C 81 % 1025,4 hPa 0,0 l/m 0,0 km/h (0 Bft) S 183 0 min 0,000 mm 1,0 UV-I 51 W/m -2,2 C 0,7 C 0,0 km/h (0 Bft) 0,00 %
09.12.2014 09:15 1,0 C 80 % 1025,6 hPa 0,0 l/m 0,0 km/h (0 Bft) S 181 0 min 0,000 mm 1,0 UV-I 60 W/m -2,1 C 1,0 C 0,0 km/h (0 Bft) 0,00 %
09.12.2014 09:30 1,5 C 78 % 1025,9 hPa 0,0 l/m 0,0 km/h (0 Bft) S-SW 194 0 min 0,000 mm 1,0 UV-I 59 W/m -1,9 C 1,5 C 0,0 km/h (0 Bft) 0,00 %
09.12.2014 09:45 1,7 C 77 % 1026,0 hPa 0,0 l/m 0,0 km/h (0 Bft) S-SW 199 0 min 0,000 mm 1,0 UV-I 64 W/m -1,9 C 1,7 C 0,0 km/h (0 Bft) 0,00 %
09.12.2014 10:00 2,9 C 75 % 1026,0 hPa 0,0 l/m 0,0 km/h (0 Bft) S-SW 211 0 min 0,000 mm 1,0 UV-I 78 W/m -1,1 C 2,9 C 0,0 km/h (0 Bft) 0,00 %
09.12.2014 10:15 3,2 C 74 % 1026,2 hPa 0,0 l/m 0,0 km/h (0 Bft) O 99 0 min 0,000 mm 1,0 UV-I 87 W/m -1,0 C 3,2 C 0,0 km/h (0 Bft) 0,00 %
09.12.2014 10:30 2,8 C 74 % 1026,2 hPa 0,0 l/m 0,0 km/h (0 Bft) S 176 0 min 0,000 mm 1,0 UV-I 95 W/m -1,4 C 2,8 C 0,0 km/h (0 Bft) 0,00 %
09.12.2014 10:45 2,4 C 74 % 1026,2 hPa 0,0 l/m 0,0 km/h (0 Bft) SO 129 0 min 0,000 mm 1,0 UV-I 85 W/m -1,7 C 2,4 C 0,0 km/h (0 Bft) 0,00 %
09.12.2014 11:00 2,4 C 73 % 1026,5 hPa 0,0 l/m 0,0 km/h (0 Bft) O-SO 111 0 min 0,000 mm 1,0 UV-I 92 W/m -1,9 C 2,4 C 0,0 km/h (0 Bft) 0,00 %
09.12.2014 11:15 2,5 C 68 % 1026,5 hPa 0,0 l/m 0,0 km/h (0 Bft) S 175 0 min 0,000 mm 1,0 UV-I 88 W/m -2,8 C 2,5 C 0,0 km/h (0 Bft) 0,00 %
09.12.2014 11:30 2,4 C 72 % 1026,4 hPa 0,0 l/m 0,0 km/h (0 Bft) SO 135 0 min 0,000 mm 1,0 UV-I 83 W/m -2,1 C 2,4 C 0,0 km/h (0 Bft) 0,00 %
09.12.2014 11:45 2,6 C 72 % 1026,6 hPa 0,0 l/m 0,0 km/h (0 Bft) O-SO 118 0 min 0,000 mm 1,0 UV-I 90 W/m -1,9 C 2,6 C 0,0 km/h (0 Bft) 0,00 %
09.12.2014 12:00 2,8 C 69 % 1026,5 hPa 0,0 l/m 0,0 km/h (0 Bft) S 173 0 min 0,000 mm 1,0 UV-I 101 W/m -2,3 C 2,8 C 0,0 km/h (0 Bft) 0,00 %
09.12.2014 12:15 3,2 C 69 % 1026,6 hPa 0,0 l/m 0,0 km/h (0 Bft) S 174 0 min 0,000 mm 1,0 UV-I 137 W/m -1,9 C 3,2 C 0,0 km/h (0 Bft) 0,00 %
09.12.2014 12:30 3,3 C 69 % 1026,8 hPa 0,0 l/m 0,0 km/h (0 Bft) S 174 0 min 0,000 mm 1,0 UV-I 118 W/m -1,8 C 3,3 C 0,0 km/h (0 Bft) 0,00 %
09.12.2014 12:45 2,9 C 67 % 1027,0 hPa 0,0 l/m 0,0 km/h (0 Bft) N 350 0 min 0,000 mm 1,0 UV-I 97 W/m -2,6 C 2,9 C 0,0 km/h (0 Bft) 0,00 %
09.12.2014 13:00 2,7 C 67 % 1027,2 hPa 0,0 l/m 0,0 km/h (0 Bft) S-SW 205 0 min 0,000 mm 1,0 UV-I 104 W/m -2,8 C 2,7 C 0,0 km/h (0 Bft) 0,00 %
09.12.2014 13:15 3,0 C 69 % 1027,0 hPa 0,0 l/m 0,0 km/h (0 Bft) SO 145 0 min 0,000 mm 1,0 UV-I 106 W/m -2,1 C 3,0 C 0,0 km/h (0 Bft) 0,00 %
09.12.2014 13:30 3,3 C 71 % 1027,2 hPa 0,0 l/m 0,0 km/h (0 Bft) S 185 0 min 0,000 mm 1,0 UV-I 113 W/m -1,4 C 3,3 C 0,0 km/h (0 Bft) 0,00 %
09.12.2014 13:45 3,2 C 71 % 1027,1 hPa 0,0 l/m 0,0 km/h (0 Bft) SW 223 0 min 0,000 mm 1,0 UV-I 66 W/m -1,5 C 3,2 C 0,0 km/h (0 Bft) 0,00 %
09.12.2014 14:00 2,9 C 72 % 1027,3 hPa 0,0 l/m 0,0 km/h (0 Bft) SW 216 0 min 0,000 mm 1,0 UV-I 59 W/m -1,6 C 2,9 C 0,0 km/h (0 Bft) 0,00 %
09.12.2014 14:15 3,0 C 72 % 1027,6 hPa 0,0 l/m 0,0 km/h (0 Bft) SW 216 0 min 0,000 mm 1,0 UV-I 75 W/m -1,5 C 3,0 C 0,0 km/h (0 Bft) 0,00 %
09.12.2014 14:30 2,8 C 74 % 1027,9 hPa 0,0 l/m 0,0 km/h (0 Bft) SW 216 0 min 0,000 mm 1,0 UV-I 52 W/m -1,4 C 2,8 C 0,0 km/h (0 Bft) 0,00 %
09.12.2014 14:45 2,7 C 74 % 1027,9 hPa 0,0 l/m 0,0 km/h (0 Bft) SW 216 0 min 0,000 mm 1,0 UV-I 46 W/m -1,5 C 2,7 C 0,0 km/h (0 Bft) 0,00 %
09.12.2014 15:00 2,4 C 70 % 1028,3 hPa 0,0 l/m 0,0 km/h (0 Bft) SW 216 0 min 0,000 mm 1,0 UV-I 42 W/m -2,5 C 2,4 C 0,0 km/h (0 Bft) 0,00 %
09.12.2014 15:15 2,2 C 70 % 1028,5 hPa 0,0 l/m 0,0 km/h (0 Bft) SW 216 0 min 0,000 mm 0,0 UV-I 33 W/m -2,7 C 2,2 C 0,0 km/h (0 Bft) 0,00 %
09.12.2014 15:30 1,8 C 71 % 1028,6 hPa 0,0 l/m 0,0 km/h (0 Bft) SW 216 0 min 0,000 mm 0,0 UV-I 21 W/m -2,9 C 1,8 C 0,0 km/h (0 Bft) 0,00 %
09.12.2014 15:45 1,3 C 76 % 1029,0 hPa 0,0 l/m 0,0 km/h (0 Bft) SW 216 0 min 0,000 mm 0,0 UV-I 4 W/m -2,5 C 1,3 C 0,0 km/h (0 Bft) 0,00 %
09.12.2014 16:00 1,2 C 75 % 1029,1 hPa 0,0 l/m 0,0 km/h (0 Bft) SW 216 0 min 0,000 mm 0,0 UV-I 0 W/m -2,7 C 1,2 C 0,0 km/h (0 Bft) 0,00 %
09.12.2014 16:15 1,1 C 75 % 1029,3 hPa 0,0 l/m 0,0 km/h (0 Bft) SW 216 0 min 0,000 mm 0,0 UV-I 0 W/m -2,8 C 1,1 C 0,0 km/h (0 Bft) 0,00 %
09.12.2014 16:30 1,0 C 74 % 1029,7 hPa 0,0 l/m 0,0 km/h (0 Bft) SW 216 0 min 0,000 mm 0,0 UV-I 0 W/m -3,1 C 1,0 C 0,0 km/h (0 Bft) 0,00 %
09.12.2014 16:45 0,9 C 76 % 1029,9 hPa 0,0 l/m 0,0 km/h (0 Bft) SW 216 0 min 0,000 mm 0,0 UV-I 0 W/m -2,8 C 0,9 C 0,0 km/h (0 Bft) 0,00 %
09.12.2014 17:00 0,6 C 76 % 1029,9 hPa 0,0 l/m 0,0 km/h (0 Bft) SW 216 0 min 0,000 mm 0,0 UV-I 0 W/m -3,1 C 0,6 C 0,0 km/h (0 Bft) 0,00 %
09.12.2014 17:15 0,4 C 79 % 1030,0 hPa 0,0 l/m 0,0 km/h (0 Bft) SW 216 0 min 0,000 mm 0,0 UV-I 0 W/m -2,8 C 0,4 C 0,0 km/h (0 Bft) 0,00 %
09.12.2014 17:30 0,0 C 80 % 1030,4 hPa 0,0 l/m 0,0 km/h (0 Bft) S-SW 212 0 min 0,000 mm 0,0 UV-I 0 W/m -3,0 C 0,0 C 0,0 km/h (0 Bft) 0,00 %
09.12.2014 17:45 0,1 C 80 % 1030,4 hPa 0,0 l/m 0,7 km/h (0 Bft) W-SW 252 0 min 0,000 mm 0,0 UV-I 0 W/m -2,9 C 0,1 C 4,0 km/h (1 Bft) 0,00 %
09.12.2014 18:00 0,2 C 80 % 1030,6 hPa 0,0 l/m 0,0 km/h (0 Bft) S-SW 198 0 min 0,000 mm 0,0 UV-I 0 W/m -2,8 C 0,2 C 0,0 km/h (0 Bft) 0,00 %
09.12.2014 18:15 0,0 C 79 % 1030,9 hPa 0,0 l/m 0,0 km/h (0 Bft) W-SW 250 0 min 0,000 mm 0,0 UV-I 0 W/m -3,2 C 0,0 C 0,0 km/h (0 Bft) 0,00 %
09.12.2014 18:30 -0,2 C 80 % 1031,0 hPa 0,0 l/m 0,4 km/h (0 Bft) W-SW 253 0 min 0,000 mm 0,0 UV-I 0 W/m -3,2 C -0,2 C 4,0 km/h (1 Bft) 0,00 %
09.12.2014 18:45 -0,5 C 81 % 1031,2 hPa 0,0 l/m 0,0 km/h (0 Bft) SW 234 0 min 0,000 mm 0,0 UV-I 0 W/m -3,3 C -0,5 C 0,0 km/h (0 Bft) 0,00 %
09.12.2014 19:00 -0,6 C 81 % 1031,2 hPa 0,0 l/m 0,0 km/h (0 Bft) S 191 0 min 0,000 mm 0,0 UV-I 0 W/m -3,4 C -0,6 C 0,0 km/h (0 Bft) 0,00 %
09.12.2014 19:15 -0,7 C 81 % 1031,2 hPa 0,0 l/m 0,0 km/h (0 Bft) SW 220 0 min 0,000 mm 0,0 UV-I 0 W/m -3,5 C -0,7 C 0,0 km/h (0 Bft) 0,00 %
09.12.2014 19:30 -0,8 C 81 % 1031,2 hPa 0,0 l/m 0,0 km/h (0 Bft) W-SW 250 0 min 0,000 mm 0,0 UV-I 0 W/m -3,6 C -0,8 C 0,0 km/h (0 Bft) 0,00 %
09.12.2014 19:45 -0,7 C 81 % 1031,2 hPa 0,0 l/m 0,0 km/h (0 Bft) W-SW 250 0 min 0,000 mm 0,0 UV-I 0 W/m -3,5 C -0,7 C 0,0 km/h (0 Bft) 0,00 %
09.12.2014 20:00 -0,7 C 81 % 1031,2 hPa 0,0 l/m 0,0 km/h (0 Bft) SW 223 0 min 0,000 mm 0,0 UV-I 0 W/m -3,5 C -0,7 C 0,0 km/h (0 Bft) 0,00 %
09.12.2014 20:15 -0,8 C 80 % 1031,3 hPa 0,0 l/m 0,0 km/h (0 Bft) SW 230 0 min 0,000 mm 0,0 UV-I 0 W/m -3,8 C -0,8 C 0,0 km/h (0 Bft) 0,00 %
09.12.2014 20:30 -1,1 C 81 % 1031,5 hPa 0,0 l/m 0,0 km/h (0 Bft) SW 230 0 min 0,000 mm 0,0 UV-I 0 W/m -3,9 C -1,1 C 0,0 km/h (0 Bft) 0,00 %
09.12.2014 20:45 -1,4 C 82 % 1031,7 hPa 0,0 l/m 0,0 km/h (0 Bft) SW 230 0 min 0,000 mm 0,0 UV-I 0 W/m -4,1 C -1,4 C 0,0 km/h (0 Bft) 0,00 %
09.12.2014 21:00 -1,7 C 82 % 1031,5 hPa 0,0 l/m 0,0 km/h (0 Bft) SW 230 0 min 0,000 mm 0,0 UV-I 0 W/m -4,4 C -1,7 C 0,0 km/h (0 Bft) 0,00 %
09.12.2014 21:15 -1,9 C 82 % 1031,6 hPa 0,0 l/m 0,0 km/h (0 Bft) SW 230 0 min 0,000 mm 0,0 UV-I 0 W/m -4,6 C -1,9 C 0,0 km/h (0 Bft) 0,00 %
09.12.2014 21:30 -2,0 C 83 % 1031,9 hPa 0,0 l/m 0,0 km/h (0 Bft) SW 230 0 min 0,000 mm 0,0 UV-I 0 W/m -4,5 C -2,0 C 0,0 km/h (0 Bft) 0,00 %
09.12.2014 21:45 -2,0 C 83 % 1031,8 hPa 0,0 l/m 0,0 km/h (0 Bft) SW 230 0 min 0,000 mm 0,0 UV-I 0 W/m -4,5 C -2,0 C 0,0 km/h (0 Bft) 0,00 %
09.12.2014 22:00 -2,2 C 83 % 1031,6 hPa 0,0 l/m 0,0 km/h (0 Bft) SW 230 0 min 0,000 mm 0,0 UV-I 0 W/m -4,7 C -2,2 C 0,0 km/h (0 Bft) 0,00 %
09.12.2014 22:15 -2,4 C 79 % 1032,0 hPa 0,0 l/m 0,0 km/h (0 Bft) SW 230 0 min 0,000 mm 0,0 UV-I 0 W/m -5,5 C -2,4 C 0,0 km/h (0 Bft) 0,00 %
09.12.2014 22:30 -2,6 C 79 % 1032,1 hPa 0,0 l/m 0,0 km/h (0 Bft) SW 230 0 min 0,000 mm 0,0 UV-I 0 W/m -5,7 C -2,6 C 0,0 km/h (0 Bft) 0,00 %
09.12.2014 22:45 -2,5 C 83 % 1032,3 hPa 0,0 l/m 0,0 km/h (0 Bft) SW 230 0 min 0,000 mm 0,0 UV-I 0 W/m -5,0 C -2,5 C 0,0 km/h (0 Bft) 0,00 %
09.12.2014 23:00 -2,3 C 83 % 1032,5 hPa 0,0 l/m 0,0 km/h (0 Bft) SW 230 0 min 0,000 mm 0,0 UV-I 0 W/m -4,8 C -2,3 C 0,0 km/h (0 Bft) 0,00 %
09.12.2014 23:15 -1,9 C 84 % 1032,3 hPa 0,0 l/m 0,0 km/h (0 Bft) SW 230 0 min 0,000 mm 0,0 UV-I 0 W/m -4,2 C -1,9 C 0,0 km/h (0 Bft) 0,00 %
09.12.2014 23:30 -1,8 C 84 % 1031,8 hPa 0,0 l/m 0,0 km/h (0 Bft) SW 230 0 min 0,000 mm 0,0 UV-I 0 W/m -4,1 C -1,8 C 0,0 km/h (0 Bft) 0,00 %
09.12.2014 23:45 -1,7 C 84 % 1031,7 hPa 0,0 l/m 0,0 km/h (0 Bft) SW 230 0 min 0,000 mm 0,0 UV-I 0 W/m -4,0 C -1,7 C 0,0 km/h (0 Bft) 0,00 %
_ Min-Zeit 22:30 12:45 00:00 - 00:00 - - - - - - 22:30 22:30 00:00 00:00
Minimum _ -2,6 C 67 % 1019,6 hPa - 0,0 km/h (0 Bft) - - - - - - -5,7 C -2,6 C 0,0 km/h (0 Bft) 0,00 %
_ Max-Zeit 12:30 23:15 23:00 01:15 17:45 - - 00:00 00:00 08:45 12:15 10:15 12:30 17:45 00:00
Maximum _ 3,3 C 84 % 1032,5 hPa 0,3 l/m 0,7 km/h
W-SW (0 Bft)
- - 0 min 0,000 mm 1,0 UV-I 137 W/m -1,0 C 3,3 C 4,0 km/h
W-SW (1 Bft)
0,00 %
Durchschnitt _ 0,9 C 79 % 1026,3 hPa #0,3 l/m 0,0 km/h (0 Bft) N - #0 min. #0,000 mm 1,0 UV-I 69 W/m -2,4 C 0,9 C 0,1 km/h (0 Bft) 0,00 %